Glendive, MT

9:07 AM MDT on June 23, 2017 (GMT -0600)
Dawson Community

Weather History for KGDV - May, 2014

Change the Weather History Date:

Monday, May 19, 2014

  Actual Average Record
Temperature  
Mean Temperature 58 °F -  
Max Temperature 69 °F 64 °F 80 °F (2005)
Min Temperature 46 °F 40 °F 30 °F (2015)
Degree Days  
Heating Degree Days 8    
Growing Degree Days 8 (Base 50)    
Moisture  
Dew Point 47 °F    
Average Humidity 68    
Maximum Humidity 94    
Minimum Humidity 40    
Precipitation  
Precipitation 0.00 in - - ()
Sea Level Pressure  
Sea Level Pressure 29.70 in    
Wind  
Wind Speed 11 mph (WNW)    
Max Wind Speed 21 mph    
Max Gust Speed 26 mph    
Visibility 10 miles    
Events      
Averages and records for this station are not official NWS values.
T = Trace of Precipitation, MM = Missing Value Source: NWS Daily Summary

Daily Weather History Graph

Daily Weather History Graph

Search for Another Location

Airport or City:

Trip Planner

Search our weather history database for the weather conditions in past years. The results will help you decide how hot, cold, wet, or windy it might be!

Date:

Astronomy

May. 19, 2014 Rise Set
Actual Time 5:18 AM MDT 8:33 PM MDT
Civil Twilight 4:41 AM MDT 9:10 PM MDT
Nautical Twilight 3:53 AM MDT 9:58 PM MDT
Astronomical Twilight 2:53 AM MDT 10:59 PM MDT
Moon 12:17 AM MDT (5/19) 10:25 AM MDT (5/19)
Length of Visible Light 16h 28m
Length of Day
15h 14m
Waning Gibbous, 70% of the Moon is Illuminated
May 19
Waning Gibbous
May 21
Last Quarter
May 28
New
Jun 5
First Quarter
Jun 12
Full

Hourly Weather History & Observations

Time (MDT) Temp. Windchill Dew Point Humidity Pressure Visibility Wind Dir Wind Speed Gust Speed Precip Events Conditions
12:15 AM 53.6 °F - 48.2 °F 82% 29.58 in 10.0 mi NNW 15.0 mph 21.9 mph N/A   Clear
12:35 AM 51.8 °F - 48.2 °F 88% 29.58 in 10.0 mi NNW 13.8 mph - N/A   Clear
12:55 AM 51.8 °F - 48.2 °F 88% 29.59 in 10.0 mi NNW 9.2 mph - N/A   Mostly Cloudy
1:15 AM 53.6 °F - 50.0 °F 88% 29.60 in 10.0 mi North 8.1 mph - N/A   Overcast
1:35 AM 53.6 °F - 50.0 °F 88% 29.61 in 10.0 mi NNW 5.8 mph - N/A   Overcast
1:55 AM 53.6 °F - 51.8 °F 94% 29.61 in 10.0 mi North 6.9 mph - N/A   Overcast
2:15 AM 53.6 °F - 51.8 °F 94% 29.61 in 10.0 mi NE 5.8 mph - N/A   Overcast
2:35 AM 53.6 °F - 51.8 °F 94% 29.62 in 10.0 mi NW 3.5 mph - N/A   Overcast
2:55 AM 53.6 °F - 51.8 °F 94% 29.61 in 10.0 mi NW 6.9 mph - N/A   Overcast
3:15 AM 53.6 °F - 50.0 °F 88% 29.61 in 10.0 mi West 8.1 mph - N/A   Overcast
3:35 AM 51.8 °F - 50.0 °F 94% 29.62 in 10.0 mi West 9.2 mph - N/A   Overcast
3:55 AM 51.8 °F - 50.0 °F 94% 29.63 in 10.0 mi West 5.8 mph - N/A   Overcast
4:15 AM 51.8 °F - 50.0 °F 94% 29.64 in 10.0 mi West 8.1 mph - N/A   Overcast
4:35 AM 51.8 °F - 50.0 °F 94% 29.65 in 10.0 mi WSW 9.2 mph - N/A   Overcast
4:55 AM 51.8 °F - 48.2 °F 88% 29.64 in 10.0 mi West 9.2 mph - N/A   Overcast
5:15 AM 51.8 °F - 48.2 °F 88% 29.64 in 10.0 mi West 5.8 mph - N/A   Mostly Cloudy
5:35 AM 48.2 °F - 46.4 °F 93% 29.64 in 10.0 mi West 6.9 mph - N/A   Partly Cloudy
5:55 AM 48.2 °F - 44.6 °F 87% 29.65 in 10.0 mi West 5.8 mph - N/A   Clear
6:15 AM 48.2 °F - 46.4 °F 93% 29.65 in 10.0 mi SW 6.9 mph - N/A   Clear
6:35 AM 51.8 °F - 48.2 °F 88% 29.65 in 10.0 mi SW 6.9 mph - N/A   Partly Cloudy
7:55 AM 53.6 °F - 50.0 °F 88% 29.67 in 10.0 mi South 6.9 mph - N/A   Partly Cloudy
8:55 AM 57.2 °F - 51.8 °F 82% 29.68 in 10.0 mi WSW 11.5 mph - N/A   Mostly Cloudy
9:15 AM 60.8 °F - 51.8 °F 72% 29.68 in 10.0 mi West 11.5 mph - N/A   Mostly Cloudy
9:35 AM 60.8 °F - 51.8 °F 72% 29.67 in 10.0 mi WNW 15.0 mph - N/A   Partly Cloudy
9:55 AM 62.6 °F - 51.8 °F 68% 29.67 in 10.0 mi West 13.8 mph - N/A   Clear
10:15 AM 64.4 °F - 51.8 °F 64% 29.68 in 10.0 mi WNW 11.5 mph - N/A   Partly Cloudy
10:35 AM 64.4 °F - 50.0 °F 59% 29.68 in 10.0 mi West 18.4 mph 23.0 mph N/A   Partly Cloudy
10:55 AM 64.4 °F - 51.8 °F 64% 29.68 in 10.0 mi West 16.1 mph 21.9 mph N/A   Clear
11:15 AM 64.4 °F - 50.0 °F 59% 29.68 in 10.0 mi NW 12.7 mph 21.9 mph N/A   Partly Cloudy
11:35 AM 66.2 °F - 48.2 °F 52% 29.69 in 10.0 mi WNW 16.1 mph 21.9 mph N/A   Partly Cloudy
11:55 AM 66.2 °F - 50.0 °F 56% 29.69 in 10.0 mi WNW 13.8 mph 19.6 mph N/A   Scattered Clouds
12:15 PM 66.2 °F - 48.2 °F 52% 29.69 in 10.0 mi WNW 20.7 mph 24.2 mph N/A   Mostly Cloudy
12:35 PM 66.2 °F - 48.2 °F 52% 29.69 in 10.0 mi WNW 19.6 mph 24.2 mph N/A   Scattered Clouds
12:55 PM 68.0 °F - 48.2 °F 49% 29.69 in 10.0 mi West 16.1 mph 23.0 mph N/A   Scattered Clouds
1:15 PM 66.2 °F - 48.2 °F 52% 29.70 in 10.0 mi WNW 11.5 mph 23.0 mph N/A   Scattered Clouds
1:35 PM 69.8 °F - 46.4 °F 43% 29.70 in 10.0 mi WNW 18.4 mph - N/A   Partly Cloudy
1:55 PM 69.8 °F - 46.4 °F 43% 29.70 in 10.0 mi West 20.7 mph - N/A   Clear
2:15 PM 69.8 °F - 46.4 °F 43% 29.71 in 10.0 mi West 17.3 mph 21.9 mph N/A   Partly Cloudy
2:35 PM 68.0 °F - 46.4 °F 46% 29.71 in 10.0 mi WNW 15.0 mph 24.2 mph N/A   Clear
2:55 PM 69.8 °F - 48.2 °F 46% 29.71 in 10.0 mi West 18.4 mph 24.2 mph N/A   Partly Cloudy
3:15 PM 69.8 °F - 46.4 °F 43% 29.72 in 10.0 mi WNW 16.1 mph 24.2 mph N/A   Partly Cloudy
3:35 PM 68.0 °F - 44.6 °F 43% 29.72 in 10.0 mi West 16.1 mph 21.9 mph N/A   Clear
3:55 PM 69.8 °F - 48.2 °F 46% 29.72 in 10.0 mi WNW 18.4 mph 25.3 mph N/A   Partly Cloudy
4:15 PM 66.2 °F - 46.4 °F 49% 29.72 in 10.0 mi WNW 19.6 mph - N/A   Clear
4:55 PM 68.0 °F - 44.6 °F 43% 29.73 in 10.0 mi NW 13.8 mph 20.7 mph N/A   Mostly Cloudy
5:15 PM 66.2 °F - 44.6 °F 46% 29.73 in 10.0 mi WNW 16.1 mph 21.9 mph N/A   Overcast
5:35 PM 64.4 °F - 44.6 °F 49% 29.73 in 10.0 mi NW 11.5 mph - N/A   Mostly Cloudy
5:55 PM 68.0 °F - 42.8 °F 40% 29.74 in 10.0 mi WNW 12.7 mph 19.6 mph N/A   Scattered Clouds
6:15 PM 66.2 °F - 41.0 °F 40% 29.74 in 10.0 mi WNW 15.0 mph 20.7 mph N/A   Scattered Clouds
6:35 PM 66.2 °F - 44.6 °F 46% 29.75 in 10.0 mi NW 17.3 mph - N/A   Scattered Clouds
6:55 PM 66.2 °F - 44.6 °F 46% 29.76 in 10.0 mi West 13.8 mph 19.6 mph N/A   Scattered Clouds
7:15 PM 62.6 °F - 44.6 °F 52% 29.76 in 10.0 mi West 11.5 mph - N/A   Mostly Cloudy
7:35 PM 62.6 °F - 46.4 °F 55% 29.77 in 10.0 mi West 8.1 mph - N/A   Partly Cloudy
7:55 PM 60.8 °F - 44.6 °F 55% 29.78 in 10.0 mi WSW 11.5 mph - N/A   Partly Cloudy
8:15 PM 59.0 °F - 42.8 °F 55% 29.79 in 10.0 mi WSW 12.7 mph - N/A   Clear
8:35 PM 57.2 °F - 44.6 °F 63% 29.80 in 10.0 mi West 11.5 mph - N/A   Clear
8:55 PM 55.4 °F - 44.6 °F 67% 29.80 in 10.0 mi West 11.5 mph - N/A   Clear
9:15 PM 55.4 °F - 44.6 °F 67% 29.81 in 10.0 mi West 13.8 mph - N/A   Partly Cloudy
9:35 PM 57.2 °F - 42.8 °F 59% 29.83 in 10.0 mi WNW 19.6 mph 26.5 mph N/A   Scattered Clouds
9:55 PM 55.4 °F - 44.6 °F 67% 29.84 in 10.0 mi NNW 15.0 mph 25.3 mph N/A   Partly Cloudy
10:15 PM 53.6 °F - 42.8 °F 67% 29.84 in 10.0 mi NW 9.2 mph - N/A   Clear
10:35 PM 50.0 °F - 42.8 °F 76% 29.84 in 10.0 mi West 9.2 mph - N/A   Clear
10:55 PM 46.4 °F 42.4 °F 42.8 °F 87% 29.84 in 10.0 mi WNW 8.1 mph - N/A   Clear
11:15 PM 48.2 °F - 42.8 °F 82% 29.85 in 10.0 mi WNW 5.8 mph - N/A   Mostly Cloudy
11:35 PM 48.2 °F - 42.8 °F 82% 29.85 in 10.0 mi West 8.1 mph - N/A   Mostly Cloudy
11:55 PM 48.2 °F - 42.8 °F 82% 29.85 in 10.0 mi West 5.8 mph - N/A   Mostly Cloudy